{"data":{"norad_id":52620,"epoch":"2026-09-20T04:00:03.000096Z","epoch_age_seconds":95252,"freshness":"FRESH","line1":"1 52620U 22052Y   26263.16670139 -.00001205  00000+0 -23651-4 0  9998","line2":"2 52620  53.1607 117.6049 0001034  78.6630  98.6385 15.35407089  5865","mean_motion":15.35407089,"eccentricity":0.0001034,"inclination_deg":53.1607,"raan_deg":117.6049,"arg_perigee_deg":78.663,"mean_anomaly_deg":98.6385,"bstar":-2.3651e-5,"rev_number":586,"period_min":93.786202390003,"perigee_km":459.00456214172,"apogee_km":460.41862923131,"semimajor_km":6837.8485956865,"source":"CELESTRAK","updated_at":"2026-09-20T09:00:40.071710Z"}}